STARLINK-35679

Last updated on Wed Dec 10 2025 00:02:05 GMT+0000 (Coordinated Universal Time)

1 66408U 25257AE 25343.21119007 .00128284 00000+0 22741-2 0 9995 2 66408 53.1586 280.6256 0001457 79.4108 280.7065 15.49344451 5833
UTC large
Height (km)
Speed (km/s)
/
Latitude / Longitude
Inclination (degrees)
Orbital Period (minutes)
Azimuth
Elevation
Range (km)
Doppler Factor

Next 0 passes for location: London (51.5072 / 0.1276)

Sorry there are no passes over London.